Hourly Weather Kozowka

Today, 27 October, Tuesday

Time Temperature Precipitation Wind Pressure Humidity
00:00 +10°C° 0 mm 2 mps 709 mmHg 85%
01:00 +9°C° 0 mm 2 mps 709 mmHg 88%
02:00 +9°C° 0 mm 2 mps 709 mmHg 88%
03:00 +9°C° 0 mm 2 mps 709 mmHg 89%
04:00 +10°C° 0 mm 1 mps 709 mmHg 89%
05:00 +10°C° 0 mm 1 mps 709 mmHg 88%
06:00 +10°C° 0 mm 1 mps 710 mmHg 88%
07:00 +11°C° 0 mm 1 mps 710 mmHg 86%
08:00 +12°C° 0 mm 1 mps 711 mmHg 79%
09:00 +14°C° 0 mm 1 mps 711 mmHg 73%
10:00 +16°C° 0 mm 1 mps 712 mmHg 66%
11:00 +16°C° 0 mm 2 mps 712 mmHg 62%
12:00 +17°C° 0 mm 2 mps 712 mmHg 58%
13:00 +18°C° 0 mm 2 mps 712 mmHg 54%
14:00 +17°C° 0 mm 2 mps 712 mmHg 60%
15:00 +15°C° 0 mm 1 mps 711 mmHg 66%
16:00 +14°C° 0 mm 1 mps 711 mmHg 72%
17:00 +13°C° 0 mm 1 mps 711 mmHg 76%
18:00 +12°C° 0 mm 1 mps 712 mmHg 80%
19:00 +11°C° 0 mm 1 mps 712 mmHg 83%
20:00 +11°C° 0 mm 1 mps 712 mmHg 85%
21:00 +10°C° 0 mm 1 mps 712 mmHg 88%
22:00 +10°C° 0 mm 1 mps 713 mmHg 90%
23:00 +10°C° 0 mm 1 mps 713 mmHg 90%

Tomorrow, 28 October, Wednesday

Time Temperature Precipitation Wind Pressure Humidity
00:00 +10°C° 0 mm 1 mps 713 mmHg 91%
01:00 +10°C° 0 mm 1 mps 713 mmHg 91%
02:00 +8°C° 0 mm 0 mps 713 mmHg 91%
03:00 +8°C° 0 mm 0 mps 713 mmHg 92%
04:00 +8°C° 0 mm 0 mps 713 mmHg 92%
05:00 +8°C° 0 mm 0 mps 713 mmHg 91%
06:00 +8°C° 0 mm 0 mps 713 mmHg 90%
07:00 +8°C° 0 mm 0 mps 714 mmHg 89%
08:00 +11°C° 0 mm 1 mps 714 mmHg 83%
09:00 +13°C° 0 mm 1 mps 714 mmHg 76%
10:00 +14°C° 0 mm 1 mps 714 mmHg 69%
11:00 +15°C° 0 mm 1 mps 714 mmHg 67%
12:00 +16°C° 0 mm 1 mps 714 mmHg 65%
13:00 +17°C° 0 mm 2 mps 714 mmHg 63%
14:00 +15°C° 0 mm 1 mps 714 mmHg 70%
15:00 +14°C° 0 mm 1 mps 714 mmHg 78%
16:00 +13°C° 0 mm 1 mps 714 mmHg 85%
17:00 +12°C° 0 mm 1 mps 714 mmHg 87%
18:00 +11°C° 0 mm 1 mps 714 mmHg 89%
19:00 +10°C° 0 mm 1 mps 714 mmHg 91%
20:00 +10°C° 0 mm 1 mps 715 mmHg 91%
21:00 +10°C° 0 mm 1 mps 715 mmHg 90%
22:00 +9°C° 0 mm 1 mps 715 mmHg 90%
23:00 +9°C° 0 mm 1 mps 715 mmHg 89%

Day after tomorrow, 29 October, Thursday

Time Temperature Precipitation Wind Pressure Humidity
00:00 +9°C° 0 mm 1 mps 715 mmHg 88%
01:00 +9°C° 0 mm 1 mps 715 mmHg 87%
02:00 +8°C° 0 mm 1 mps 715 mmHg 87%
03:00 +8°C° 0 mm 1 mps 715 mmHg 88%
04:00 +8°C° 0 mm 1 mps 715 mmHg 88%
05:00 +8°C° 0 mm 1 mps 715 mmHg 87%
06:00 +8°C° 0 mm 1 mps 715 mmHg 86%
07:00 +8°C° 0 mm 1 mps 715 mmHg 85%
08:00 +9°C° 0 mm 2 mps 715 mmHg 77%
09:00 +11°C° 0 mm 3 mps 715 mmHg 69%
10:00 +12°C° 0 mm 3 mps 716 mmHg 61%
11:00 +12°C° 0 mm 4 mps 715 mmHg 63%
12:00 +12°C° 0 mm 5 mps 715 mmHg 65%
13:00 +10°C° 0 mm 5 mps 715 mmHg 67%
14:00 +10°C° 0 mm 5 mps 715 mmHg 70%
15:00 +10°C° 0 mm 4 mps 715 mmHg 74%
16:00 +9°C° 0 mm 3 mps 715 mmHg 78%
17:00 +9°C° 0.3 mm 3 mps 715 mmHg 81%
18:00 +7°C° 0.3 mm 4 mps 715 mmHg 84%
19:00 +7°C° 0.3 mm 4 mps 715 mmHg 87%
20:00 +6°C° 0.4 mm 4 mps 715 mmHg 86%
21:00 +7°C° 0.4 mm 3 mps 715 mmHg 86%
22:00 +7°C° 0.4 mm 3 mps 716 mmHg 85%
23:00 +5°C° 0.2 mm 3 mps 716 mmHg 87%

30 October, Friday

Time Temperature Precipitation Wind Pressure Humidity
00:00 +4°C° 0.2 mm 3 mps 716 mmHg 88%
01:00 +4°C° 0.2 mm 3 mps 716 mmHg 89%
02:00 +3°C° 0 mm 3 mps 717 mmHg 90%
03:00 +4°C° 0 mm 2 mps 717 mmHg 90%
04:00 +4°C° 0 mm 2 mps 717 mmHg 91%
05:00 +4°C° 0 mm 2 mps 718 mmHg 90%
06:00 +3°C° 0 mm 2 mps 718 mmHg 90%
07:00 +3°C° 0 mm 2 mps 718 mmHg 89%
08:00 +5°C° 0 mm 2 mps 718 mmHg 83%
09:00 +6°C° 0 mm 2 mps 718 mmHg 76%
10:00 +7°C° 0 mm 2 mps 718 mmHg 69%
11:00 +8°C° 0 mm 3 mps 718 mmHg 67%
12:00 +9°C° 0 mm 3 mps 718 mmHg 64%
13:00 +9°C° 0 mm 3 mps 718 mmHg 61%
14:00 +8°C° 0.3 mm 2 mps 717 mmHg 70%
15:00 +7°C° 0.3 mm 2 mps 717 mmHg 79%
16:00 +8°C° 0.3 mm 1 mps 716 mmHg 88%
17:00 +7°C° 0.9 mm 2 mps 716 mmHg 89%
18:00 +6°C° 0.9 mm 2 mps 716 mmHg 91%
19:00 +6°C° 0.9 mm 2 mps 716 mmHg 93%
20:00 +7°C° 1.1 mm 3 mps 716 mmHg 93%
21:00 +7°C° 1.1 mm 3 mps 716 mmHg 94%
22:00 +7°C° 1.1 mm 3 mps 716 mmHg 95%
23:00 +8°C° 1.4 mm 3 mps 716 mmHg 95%

31 October, Saturday

Time Temperature Precipitation Wind Pressure Humidity
00:00 +8°C° 1.4 mm 3 mps 716 mmHg 96%
01:00 +8°C° 1.4 mm 3 mps 716 mmHg 96%
02:00 +8°C° 1.1 mm 3 mps 716 mmHg 97%
03:00 +8°C° 1.1 mm 3 mps 716 mmHg 97%
04:00 +9°C° 1.1 mm 3 mps 716 mmHg 97%
05:00 +8°C° 0.8 mm 3 mps 716 mmHg 96%
06:00 +8°C° 0.8 mm 2 mps 717 mmHg 96%
07:00 +7°C° 0.8 mm 2 mps 717 mmHg 95%
08:00 +7°C° 0.1 mm 2 mps 718 mmHg 93%
09:00 +7°C° 0.1 mm 2 mps 718 mmHg 91%
10:00 +7°C° 0.1 mm 2 mps 719 mmHg 89%
11:00 +7°C° 0 mm 2 mps 719 mmHg 85%
12:00 +8°C° 0 mm 2 mps 719 mmHg 81%
13:00 +8°C° 0 mm 2 mps 719 mmHg 77%
14:00 +8°C° 0 mm 1 mps 719 mmHg 80%
15:00 +8°C° 0 mm 1 mps 720 mmHg 82%
16:00 +7°C° 0 mm 1 mps 720 mmHg 84%
17:00 +6°C° 0 mm 1 mps 720 mmHg 86%
18:00 +5°C° 0 mm 1 mps 720 mmHg 88%
19:00 +5°C° 0 mm 1 mps 721 mmHg 90%
20:00 +4°C° 0 mm 1 mps 721 mmHg 90%
21:00 +4°C° 0 mm 1 mps 721 mmHg 90%
22:00 +4°C° 0 mm 1 mps 721 mmHg 91%
23:00 +3°C° 0 mm 1 mps 721 mmHg 90%

1 November, Sunday

Time Temperature Precipitation Wind Pressure Humidity
00:00 +3°C° 0 mm 1 mps 721 mmHg 90%
01:00 +3°C° 0 mm 1 mps 721 mmHg 90%
02:00 +3°C° 0 mm 1 mps 721 mmHg 89%
03:00 +2°C° 0 mm 1 mps 721 mmHg 88%
04:00 +2°C° 0 mm 1 mps 721 mmHg 87%
05:00 +2°C° 0 mm 1 mps 721 mmHg 86%
06:00 +2°C° 0 mm 1 mps 721 mmHg 84%
07:00 +2°C° 0 mm 1 mps 721 mmHg 83%
08:00 +4°C° 0 mm 1 mps 722 mmHg 76%
09:00 +6°C° 0 mm 1 mps 722 mmHg 69%
10:00 +8°C° 0 mm 1 mps 722 mmHg 62%
11:00 +9°C° 0 mm 1 mps 722 mmHg 59%
12:00 +9°C° 0 mm 0 mps 722 mmHg 55%
13:00 +10°C° 0 mm 0 mps 722 mmHg 52%
14:00 +10°C° 0 mm 1 mps 721 mmHg 58%
15:00 +8°C° 0 mm 1 mps 721 mmHg 64%
16:00 +7°C° 0 mm 1 mps 721 mmHg 70%
17:00 +6°C° 0 mm 1 mps 721 mmHg 72%
18:00 +5°C° 0 mm 1 mps 721 mmHg 75%
19:00 +5°C° 0 mm 1 mps 721 mmHg 78%
20:00 +4°C° 0 mm 1 mps 721 mmHg 78%
21:00 +4°C° 0 mm 1 mps 720 mmHg 78%
22:00 +4°C° 0 mm 1 mps 720 mmHg 79%
23:00 +4°C° 0 mm 1 mps 720 mmHg 78%
Show more